Regional Weather Roundup
Issued by NWS

Home | Current Version | Previous Version | Text Only | Print | Product List | Glossary On
Versions: 1 2 3 4 5 6 7 8 9 10 11 12 13 14 15 16 17 18 19 20 21 22 23 24 25 26 27 28
000
ASUS46 KPQR 241410
RWROR

OREGON REGIONAL WEATHER ROUNDUP
NATIONAL WEATHER SERVICE PORTLAND OR
700 AM PDT SAT JUN 24 2017

NOTE: "FAIR" INDICATES FEW OR NO CLOUDS BELOW 12,000 FEET WITH
NO SIGNIFICANT WEATHER AND/OR OBSTRUCTIONS TO VISIBILITY.

ORZ001>013-241500-
NORTHWEST OREGON


CITY           SKY/WX    TMP DP  RH WIND       PRES   REMARKS
ASTORIA        SUNNY     66  50  56 E6        30.05R
NEWPORT        SUNNY     70  48  46 NE8       29.99S
PORTLAND       SUNNY     64  52  64 NW3       30.06S
VANCOUVER WA   SUNNY     63  54  72 CALM      30.06R
SCAPPOOSE      SUNNY     61  54  77 CALM      30.06R
HILLSBORO      SUNNY     64  52  64 NW3       30.05R
AURORA         SUNNY     70  48  45 N13       30.03R
MCMINNVILLE    SUNNY     71  46  40 N10       30.02S
SALEM          SUNNY     64  53  67 CALM      30.01R
CORVALLIS      SUNNY     57  52  82 CALM      30.02S
EUGENE         SUNNY     59  54  83 CALM      30.01R
$$

ORZ021-028-241500-
SOUTHWEST OREGON


CITY           SKY/WX    TMP DP  RH WIND       PRES   REMARKS
NORTH BEND     SUNNY     54  52  94 CALM      29.97S
BROOKINGS      MOSUNNY   54  52  93 CALM      29.97R
ROSEBURG       SUNNY     63  55  75 CALM      30.00R
SEXTON SUMMIT  SUNNY     71  40  32 E8        30.13R
GRANTS PASS    FAIR      61  52  72 CALM      30.06R
MEDFORD        SUNNY     66  52  60 CALM      30.03R
$$

ORZ014>016-041-241500-
COLUMBIA GORGE


CITY           SKY/WX    TMP DP  RH WIND       PRES   REMARKS
TROUTDALE      SUNNY     66  52  60 VRB5      30.05S
HOOD RIVER     SUNNY     55  45  67 CALM      30.17S
THE DALLES     SUNNY     59  44  57 CALM      30.16R
$$

ORZ029>031-041-044-049-050-061>064-502-503-505>511-241500-
EASTERN OREGON


CITY           SKY/WX    TMP DP  RH WIND       PRES   REMARKS
MADRAS         NOT AVBL
REDMOND        MOSUNNY   53  31  42 SE3       30.23S
BEND           NOT AVBL
PRINEVILLE     MOSUNNY   55  34  44 CALM      30.25R
KLAMATH FALLS  SUNNY     63  43  48 N8        30.21R
LAKEVIEW       SUNNY     62  38  40 N8        30.25R
HERMISTON      SUNNY     60  45  57 S5        30.16R
PENDLETON      SUNNY     60  45  57 E6        30.18R
MEACHAM        SUNNY     46  35  65 CALM      30.26S
LA GRANDE      SUNNY     55  39  54 NW7       30.23S
BAKER CITY     SUNNY     51  44  77 CALM      30.24S
BURNS          SUNNY     55  36  48 W3        30.26R
ROME             N/A     62  32  32 SE3       30.24R
ONTARIO        SUNNY     64  43  46 W8        30.19R
$$




USA.gov is the U.S. government's official web portal to all federal, state and local government web resources and services.